QPF
0.00 0.00 0.00 0.00 0.00 0.00 0.00 0.00 0.00 0.00 0.00 0.00 0.00 0.00 0.00 0.00 0.00 0.00 0.00 0.00 0.00 0.00 0.00 0.01 0.04 0.03 0.00 0.00 0.00 0.00 0.02 0.01 0.03 0.04 0.00 0.00 0.00 0.00 0.01 0.02 0.00 0.00 0.01
0.00 0.00 0.00 0.00 0.00 0.00 0.00 0.00 0.00 0.00 0.00 0.00 0.00 0.00 0.00 0.00 0.00 0.00 0.00 0.00 0.00 0.00 0.00 0.00 0.01 0.01 0.00 0.05 0.05 0.01 0.02 0.01 0.01 0.00 0.00 0.00 0.01 0.03 0.06 0.05 0.01 0.01 0.02
0.00 0.00 0.00 0.00 0.00 0.00 0.00 0.00 0.00 0.00 0.00 0.00 0.00 0.00 0.00 0.00 0.00 0.00 0.00 0.00 0.00 0.00 0.00 0.00 0.00 0.00 0.00 0.01 0.09 0.03 0.01 0.01 0.00 0.01 0.01 0.01 0.00 0.01 0.01 0.01 0.01 0.01 0.03
0.00 0.00 0.00 0.00 0.00 0.00 0.00 0.00 0.00 0.00 0.00 0.00 0.00 0.00 0.00 0.00 0.00 0.00 0.00 0.00 0.00 0.00 0.00 0.00 0.00 0.01 0.02 0.01 0.03 0.03 0.03 0.03 0.00 0.01 0.01 0.02 0.01 0.01 0.01 0.00 0.01 0.00 0.01
0.00 0.00 0.00 0.00 0.00 0.00 0.00 0.00 0.00 0.00 0.00 0.00 0.00 0.00 0.00 0.00 0.00 0.00 0.00 0.01 0.01 0.00 0.00 0.01 0.01 0.04 0.05 0.03 0.02 0.02 0.01 0.01 0.00 0.00 0.02 0.03 0.02 0.02 0.01 0.01 0.00 0.00 0.00
0.00 0.00 0.00 0.00 0.00 0.00 0.00 0.00 0.00 0.00 0.00 0.00 0.00 0.00 0.00 0.00 0.00 0.00 0.01 0.03 0.02 0.00 0.00 0.00 0.01 0.01 0.03 0.05 0.04 0.01 0.01 0.01 0.01 0.01 0.00 0.00 0.01 0.01 0.01 0.01 0.02 0.01 0.01
0.00 0.00 0.00 0.00 0.00 0.00 0.00 0.00 0.00 0.00 0.00 0.00 0.00 0.00 0.00 0.00 0.00 0.00 0.01 0.01 0.01 0.03 0.05 0.04 0.06 0.04 0.04 0.03 0.02 0.00 0.00 0.00 0.00 0.01 0.00 0.00 0.00 0.01 0.02 0.02 0.01 0.01 0.02
0.00 0.00 0.00 0.00 0.00 0.00 0.00 0.00 0.00 0.01 0.01 0.01 0.01 0.01 0.00 0.00 0.00 0.00 0.00 0.01 0.01 0.01 0.03 0.02 0.03 0.02 0.01 0.00 0.00 0.00 0.00 0.00 0.00 0.00 0.00 0.00 0.00 0.00 0.01 0.00 0.01 0.02 0.02
0.00 0.00 0.00 0.00 0.00 0.00 0.00 0.00 0.00 0.00 0.00 0.00 0.00 0.00 0.00 0.00 0.00 0.00 0.01 0.01 0.01 0.01 0.00 0.00 0.00 0.00 0.00 0.00 0.00 0.00 0.00 0.00 0.00 0.00 0.00 0.00 0.00 0.00 0.00 0.00 0.00 0.02 0.02
0.00 0.00 0.00 0.00 0.00 0.00 0.00 0.00 0.00 0.00 0.00 0.00 0.00 0.00 0.00 0.00 0.00 0.00 0.00 0.00 0.00 0.00 0.00 0.00 0.00 0.00 0.00 0.00 0.00 0.00 0.00 0.00 0.00 0.00 0.00 0.00 0.00 0.00 0.00 0.00 0.00 0.00 0.01
0.00 0.00 0.00 0.00 0.00 0.00 0.00 0.00 0.00 0.00 0.00 0.00 0.00 0.00 0.00 0.00 0.00 0.00 0.00 0.00 0.00 0.00 0.00 0.00 0.00 0.00 0.00 0.00 0.00 0.00 0.00 0.00 0.00 0.00 0.00 0.00 0.00 0.00 0.00 0.00 0.00 0.00 0.01
0.00 0.00 0.00 0.00 0.00 0.00 0.00 0.00 0.00 0.00 0.00 0.00 0.00 0.00 0.00 0.00 0.00 0.00 0.00 0.00 0.00 0.00 0.00 0.00 0.00 0.00 0.00 0.00 0.00 0.00 0.00 0.00 0.00 0.00 0.00 0.00 0.00 0.00 0.00 0.00 0.00 0.00 0.00
0.00 0.00 0.00 0.00 0.00 0.00 0.00 0.00 0.00 0.00 0.00 0.00 0.00 0.00 0.00 0.00 0.00 0.00 0.00 0.00 0.00 0.00 0.00 0.00 0.00 0.00 0.00 0.00 0.00 0.00 0.00 0.00 0.00 0.00 0.00 0.00 0.00 0.00 0.00 0.00 0.00 0.01 0.03
0.00 0.00 0.00 0.00 0.00 0.00 0.00 0.00 0.00 0.00 0.00 0.00 0.00 0.00 0.00 0.00 0.00 0.00 0.00 0.00 0.00 0.00 0.00 0.00 0.00 0.00 0.00 0.00 0.00 0.00 0.00 0.00 0.00 0.00 0.00 0.00 0.00 0.00 0.00 0.00 0.00 0.00 0.00
0.00 0.00 0.00 0.00 0.00 0.00 0.00 0.00 0.00 0.00 0.00 0.00 0.00 0.00 0.00 0.00 0.00 0.00 0.00 0.00 0.00 0.00 0.00 0.00 0.00 0.00 0.00 0.00 0.00 0.00 0.00 0.00 0.00 0.00 0.00 0.00 0.00 0.01 0.00 0.00 0.00 0.00 0.03
0.00 0.00 0.00 0.00 0.00 0.00 0.00 0.00 0.00 0.00 0.00 0.00 0.00 0.00 0.00 0.00 0.00 0.00 0.00 0.00 0.00 0.00 0.00 0.00 0.00 0.00 0.00 0.00 0.00 0.00 0.00 0.00 0.00 0.00 0.00 0.00 0.02 0.02 0.03 0.03 0.01 0.00 0.00
0.00 0.00 0.00 0.00 0.00 0.00 0.00 0.00 0.00 0.00 0.00 0.00 0.00 0.00 0.00 0.00 0.00 0.00 0.00 0.00 0.00 0.00 0.00 0.00 0.00 0.00 0.00 0.00 0.00 0.00 0.00 0.00 0.00 0.00 0.00 0.00 0.02 0.06 0.02 0.06 0.05 0.04 0.05
0.00 0.00 0.00 0.00 0.00 0.00 0.00 0.00 0.00 0.00 0.00 0.00 0.00 0.00 0.00 0.00 0.00 0.00 0.00 0.00 0.00 0.00 0.00 0.00 0.00 0.00 0.00 0.00 0.00 0.00 0.00 0.00 0.00 0.00 0.00 0.01 0.02 0.04 0.07 0.06 0.07 0.07 0.11
0.00 0.00 0.00 0.00 0.00 0.00 0.00 0.00 0.00 0.00 0.00 0.00 0.00 0.00 0.00 0.00 0.00 0.00 0.00 0.00 0.00 0.00 0.00 0.00 0.00 0.00 0.00 0.00 0.00 0.00 0.00 0.00 0.00 0.00 0.00 0.01 0.01 0.02 0.05 0.07 0.10 0.18 0.30
0.00 0.00 0.00 0.00 0.00 0.00 0.00 0.00 0.00 0.00 0.00 0.00 0.00 0.00 0.00 0.00 0.00 0.00 0.00 0.00 0.00 0.00 0.00 0.00 0.00 0.00 0.00 0.00 0.00 0.00 0.00 0.00 0.00 0.00 0.00 0.00 0.00 0.00 0.00 0.02 0.06 0.14 0.26
0.00 0.00 0.00 0.00 0.00 0.00 0.00 0.00 0.00 0.01 0.01 0.01 0.01 0.00 0.00 0.00 0.00 0.00 0.00 0.00 0.00 0.00 0.00 0.00 0.00 0.00 0.00 0.00 0.00 0.00 0.00 0.00 0.00 0.00 0.00 0.00 0.00 0.00 0.00 0.02 0.05 0.14 0.24
0.00 0.00 0.00 0.00 0.00 0.00 0.00 0.00 0.00 0.00 0.01 0.01 0.01 0.01 0.00 0.00 0.00 0.00 0.00 0.00 0.00 0.00 0.00 0.00 0.00 0.00 0.00 0.00 0.00 0.00 0.00 0.00 0.00 0.00 0.00 0.01 0.00 0.00 0.00 0.01 0.05 0.13 0.24
0.00 0.00 0.00 0.00 0.00 0.00 0.00 0.00 0.00 0.00 0.00 0.00 0.00 0.00 0.00 0.00 0.00 0.00 0.00 0.00 0.00 0.00 0.00 0.00 0.00 0.00 0.00 0.00 0.00 0.00 0.00 0.00 0.00 0.00 0.01 0.00 0.00 0.00 0.00 0.01 0.03 0.10 0.16
0.00 0.00 0.00 0.00 0.00 0.00 0.00 0.00 0.00 0.00 0.00 0.00 0.00 0.00 0.00 0.00 0.00 0.00 0.00 0.00 0.00 0.00 0.00 0.00 0.00 0.00 0.00 0.00 0.00 0.00 0.00 0.00 0.00 0.00 0.00 0.00 0.00 0.00 0.00 0.02 0.02 0.05 0.11
0.00 0.00 0.01 0.01 0.00 0.00 0.00 0.00 0.00 0.00 0.00 0.00 0.00 0.00 0.00 0.00 0.00 0.00 0.00 0.00 0.00 0.00 0.00 0.00 0.00 0.00 0.00 0.00 0.00 0.00 0.00 0.00 0.00 0.00 0.00 0.00 0.00 0.00 0.00 0.01 0.02 0.04 0.08
0.00 0.00 0.00 0.00 0.00 0.00 0.00 0.00 0.00 0.00 0.00 0.00 0.00 0.00 0.00 0.00 0.00 0.00 0.00 0.00 0.00 0.00 0.00 0.00 0.00 0.00 0.00 0.00 0.00 0.00 0.00 0.00 0.00 0.00 0.00 0.00 0.00 0.00 0.00 0.00 0.02 0.04 0.06
MSLP
1000.39 1000.56 1000.72 1001.11 1001.95 1002.96 1003.66 1003.98 1004.40 1004.99 1006.25 1007.28 1007.74 1008.15 1008.45 1009.04 1009.89 1010.16 1010.44 1010.90 1011.96 1013.12 1013.56 1013.65 1013.92 1014.36 1015.02 1015.33 1015.52 1015.76 1016.08 1016.46 1016.77 1017.69 1018.61 1019.32 1019.51 1019.53 1019.18 1019.30 1019.52 1019.33 1019.57
999.50 999.68 1000.11 1000.85 1002.07 1002.95 1003.48 1003.93 1004.31 1004.73 1005.56 1006.45 1006.96 1007.40 1008.01 1008.50 1009.13 1009.56 1009.92 1010.45 1011.64 1012.62 1013.35 1014.08 1014.14 1014.53 1014.93 1015.23 1015.42 1015.75 1016.12 1016.63 1017.19 1017.69 1018.68 1019.54 1019.94 1019.76 1019.87 1020.29 1020.29 1020.67 1020.48
998.57 998.93 999.63 1000.70 1001.94 1002.68 1003.42 1003.87 1004.16 1004.39 1005.01 1005.79 1006.54 1007.24 1008.04 1008.52 1008.87 1009.03 1009.64 1010.55 1011.37 1012.40 1013.12 1013.59 1014.11 1014.52 1014.93 1015.00 1015.36 1015.81 1016.14 1016.87 1017.58 1017.74 1018.34 1019.27 1019.41 1019.64 1019.82 1020.02 1020.22 1020.45 1020.59
998.25 998.84 999.51 1000.63 1002.03 1002.80 1003.72 1004.10 1003.93 1004.10 1004.40 1005.47 1005.86 1007.14 1007.87 1008.57 1008.96 1009.71 1010.25 1010.95 1011.44 1012.07 1012.71 1013.35 1013.90 1014.35 1014.75 1015.07 1015.27 1015.55 1016.04 1016.74 1017.29 1017.83 1017.97 1018.33 1018.54 1019.15 1019.85 1020.13 1020.15 1020.37 1020.50
997.80 998.49 999.57 1001.04 1002.43 1003.66 1004.26 1003.96 1004.15 1004.03 1004.36 1005.23 1006.27 1007.25 1008.01 1008.55 1009.00 1009.92 1010.51 1011.06 1011.55 1011.96 1012.44 1013.00 1013.50 1014.02 1014.43 1014.84 1015.15 1015.53 1015.99 1016.38 1016.95 1017.43 1017.92 1018.33 1018.75 1019.10 1019.46 1019.96 1020.42 1020.62 1020.38
997.62 998.57 999.86 1001.86 1002.67 1004.17 1005.05 1004.93 1004.66 1004.86 1004.85 1005.34 1006.66 1007.28 1007.38 1007.44 1008.48 1009.60 1010.28 1011.02 1011.58 1012.03 1012.45 1012.96 1013.64 1013.94 1014.43 1014.75 1014.91 1015.19 1015.56 1015.94 1016.40 1016.74 1017.10 1017.39 1017.91 1018.30 1018.80 1019.18 1019.53 1019.85 1020.43
998.07 999.05 1000.45 1001.79 1002.74 1004.26 1005.02 1005.58 1005.66 1006.24 1006.47 1006.63 1006.85 1007.28 1007.27 1007.91 1008.59 1009.45 1010.16 1010.84 1011.56 1012.17 1012.59 1012.99 1013.37 1013.69 1014.13 1014.45 1014.82 1015.12 1015.37 1015.54 1015.78 1016.06 1016.41 1016.70 1016.80 1017.10 1017.56 1018.17 1019.17 1019.63 1020.41
998.86 999.58 1000.33 1001.44 1002.87 1004.37 1005.48 1005.94 1006.09 1006.57 1007.21 1007.29 1007.15 1007.19 1007.65 1007.96 1008.57 1009.28 1010.08 1010.84 1011.37 1011.79 1012.22 1012.88 1013.28 1013.59 1013.88 1014.25 1014.49 1014.71 1015.01 1015.31 1015.44 1015.61 1015.89 1016.19 1016.36 1016.63 1016.95 1017.55 1018.54 1019.58 1019.95
998.80 999.76 1000.45 1001.60 1003.36 1004.72 1005.56 1006.27 1006.54 1006.90 1007.45 1007.55 1007.73 1007.75 1008.01 1008.46 1008.89 1009.48 1010.15 1010.77 1011.46 1012.01 1012.33 1012.83 1013.15 1013.49 1013.60 1013.71 1013.94 1014.35 1014.61 1014.80 1015.09 1015.37 1015.66 1015.91 1016.12 1016.49 1016.64 1016.77 1017.05 1017.65 1019.26
998.55 999.54 1000.49 1001.71 1003.53 1005.10 1006.03 1006.59 1007.18 1007.23 1007.64 1007.98 1008.16 1008.32 1008.46 1008.83 1009.29 1009.80 1010.43 1011.09 1011.79 1012.11 1012.55 1012.83 1013.03 1013.23 1013.45 1013.70 1014.02 1014.49 1014.70 1014.87 1015.10 1015.32 1015.57 1015.67 1016.31 1016.53 1016.60 1016.78 1016.97 1017.49 1018.03
998.41 999.26 1000.27 1001.57 1003.25 1005.61 1006.44 1006.69 1007.29 1007.69 1007.78 1008.04 1008.35 1008.66 1008.83 1009.21 1009.58 1010.07 1010.73 1011.15 1011.49 1012.00 1012.18 1012.73 1012.92 1013.15 1013.46 1013.72 1014.15 1014.41 1014.77 1014.95 1015.14 1015.29 1015.51 1015.65 1015.95 1016.61 1016.62 1016.58 1016.54 1016.83 1017.20
998.29 999.15 1000.06 1001.51 1003.05 1004.88 1006.50 1006.72 1007.00 1007.78 1008.14 1008.29 1008.24 1008.66 1009.08 1009.30 1009.73 1010.13 1010.60 1011.07 1011.57 1011.87 1012.36 1012.68 1013.13 1013.20 1013.38 1013.61 1014.02 1014.47 1014.85 1014.96 1014.98 1015.06 1015.65 1015.57 1015.51 1016.13 1016.19 1016.17 1016.23 1016.51 1016.85
998.32 998.93 999.93 1001.31 1002.76 1004.07 1005.78 1006.71 1006.77 1006.94 1007.56 1008.01 1008.28 1008.68 1008.93 1009.17 1009.63 1010.22 1010.65 1011.04 1011.47 1011.95 1012.31 1012.59 1012.75 1013.37 1013.70 1013.87 1014.12 1014.46 1014.58 1014.92 1015.01 1014.96 1015.10 1014.76 1015.20 1015.40 1015.44 1015.75 1015.85 1016.16 1016.72
998.48 998.97 999.81 1001.13 1002.41 1003.61 1005.02 1005.88 1006.13 1006.65 1007.03 1007.72 1008.10 1008.54 1008.86 1009.26 1009.74 1010.40 1010.84 1011.37 1011.74 1012.01 1012.22 1012.57 1013.00 1013.26 1013.63 1014.04 1014.27 1014.61 1014.69 1014.82 1015.16 1015.31 1015.15 1015.25 1015.37 1015.43 1015.72 1015.71 1015.74 1016.02 1016.52
998.42 999.05 999.77 1000.79 1002.13 1003.49 1004.77 1005.55 1006.33 1006.79 1006.97 1007.44 1008.10 1008.76 1009.27 1009.80 1010.32 1010.72 1011.12 1011.50 1011.91 1012.62 1012.68 1012.66 1013.16 1013.50 1013.40 1013.94 1014.30 1014.52 1014.76 1014.84 1014.81 1014.89 1015.06 1015.39 1015.62 1015.75 1015.77 1015.73 1015.59 1015.98 1016.34
998.09 999.03 999.65 1000.62 1002.31 1003.90 1004.96 1006.05 1006.61 1007.02 1007.27 1007.55 1008.18 1008.92 1009.53 1010.05 1010.57 1010.95 1011.19 1011.41 1011.68 1012.12 1012.81 1012.99 1013.08 1013.21 1013.74 1013.98 1014.79 1015.28 1015.18 1015.11 1015.08 1014.99 1014.77 1014.74 1014.99 1015.19 1015.47 1015.26 1015.28 1015.67 1016.11
997.61 998.77 999.66 1001.61 1003.21 1004.35 1005.33 1006.18 1006.42 1006.70 1007.15 1007.64 1008.30 1009.05 1009.59 1010.01 1010.45 1010.68 1011.13 1011.56 1011.86 1012.21 1012.73 1012.91 1013.16 1013.34 1013.63 1014.11 1014.45 1014.85 1015.18 1015.19 1015.22 1015.27 1014.62 1014.80 1014.98 1014.91 1015.13 1015.04 1015.47 1015.73 1015.72
997.09 998.33 1000.21 1001.94 1003.62 1004.66 1005.26 1005.94 1006.58 1006.93 1007.48 1007.87 1008.31 1009.01 1009.69 1010.31 1010.73 1011.21 1011.43 1011.85 1012.22 1012.43 1012.33 1012.68 1012.91 1013.32 1013.62 1014.02 1014.53 1014.92 1015.01 1015.07 1014.80 1014.84 1014.89 1014.77 1014.48 1014.56 1014.40 1014.65 1014.86 1014.87 1015.22
996.48 998.12 1000.29 1002.27 1003.49 1004.46 1005.30 1006.19 1006.85 1007.53 1008.11 1008.72 1009.19 1009.59 1010.14 1010.54 1011.15 1011.57 1011.74 1011.82 1011.98 1012.21 1012.48 1012.75 1013.09 1013.31 1013.80 1014.03 1014.42 1014.57 1014.54 1014.24 1013.95 1013.93 1014.33 1014.29 1014.18 1014.19 1014.34 1014.38 1014.83 1014.77 1013.99
996.71 998.60 1000.41 1002.15 1003.43 1004.70 1005.63 1006.62 1007.34 1008.14 1008.83 1009.85 1010.31 1010.55 1011.12 1011.15 1010.96 1011.62 1011.73 1012.05 1012.49 1012.55 1012.55 1012.66 1012.95 1013.23 1013.40 1013.59 1013.86 1014.00 1013.89 1013.43 1013.23 1013.13 1013.22 1013.47 1013.64 1013.95 1014.05 1013.97 1014.19 1014.36 1014.01
998.18 999.86 1001.41 1002.79 1004.00 1005.29 1006.08 1006.88 1007.79 1008.76 1009.66 1010.04 1010.87 1011.31 1011.58 1011.41 1011.27 1011.65 1011.86 1011.98 1012.27 1012.29 1012.66 1012.74 1013.06 1013.35 1013.49 1013.58 1013.56 1013.30 1013.10 1013.16 1013.14 1013.25 1012.97 1012.73 1012.68 1013.34 1013.83 1013.77 1013.39 1013.59 1013.81
999.64 1000.94 1002.28 1004.06 1005.43 1005.90 1006.33 1007.04 1007.93 1009.08 1009.63 1009.98 1010.76 1011.21 1011.29 1011.66 1011.65 1011.59 1011.46 1011.69 1011.97 1012.14 1012.46 1012.60 1012.65 1012.52 1012.61 1012.58 1012.40 1012.39 1012.54 1012.61 1012.69 1012.14 1012.05 1012.40 1012.57 1012.69 1012.95 1013.39 1013.26 1013.47 1013.90
1000.22 1001.47 1002.85 1004.26 1005.75 1006.42 1006.92 1007.40 1008.25 1009.11 1009.49 1009.73 1010.10 1010.40 1010.68 1011.06 1011.24 1011.36 1011.53 1011.70 1011.82 1011.77 1011.85 1011.88 1011.67 1011.31 1011.24 1011.54 1011.76 1011.89 1011.95 1012.13 1012.23 1011.91 1011.78 1011.87 1011.65 1012.28 1012.43 1012.92 1013.18 1013.49 1014.02
1000.81 1001.88 1003.49 1004.69 1005.58 1006.39 1007.00 1007.40 1008.04 1008.76 1009.15 1009.48 1009.93 1010.25 1010.64 1010.85 1010.97 1011.20 1011.37 1011.52 1011.68 1011.65 1011.63 1011.57 1011.28 1010.85 1010.70 1010.62 1010.97 1011.16 1011.23 1011.42 1011.36 1011.17 1011.24 1011.52 1011.57 1011.81 1012.18 1012.61 1013.27 1013.39 1013.68
1001.43 1002.87 1004.14 1004.80 1005.65 1006.31 1006.89 1007.36 1007.91 1008.42 1008.87 1009.25 1009.70 1010.29 1010.56 1010.79 1010.90 1010.95 1010.95 1010.98 1011.02 1011.32 1011.53 1011.60 1011.55 1011.35 1010.73 1010.98 1011.43 1011.63 1011.57 1011.62 1011.31 1011.29 1010.73 1010.96 1011.28 1011.49 1011.82 1012.23 1012.75 1012.99 1013.17
1001.76 1003.25 1004.03 1004.90 1005.64 1006.20 1006.98 1007.39 1007.55 1008.28 1008.66 1009.14 1009.62 1010.11 1010.40 1010.65 1010.78 1010.79 1010.67 1010.75 1011.01 1011.15 1011.37 1011.48 1011.51 1011.12 1010.87 1010.68 1011.00 1010.91 1010.85 1010.87 1010.68 1010.76 1010.24 1010.11 1010.39 1010.69 1011.00 1011.42 1011.93 1012.24 1012.30
Thickness
5823 5827 5829 5829 5822 5815 5806 5802 5795 5791 5781 5768 5761 5758 5755 5752 5746 5746 5743 5741 5733 5725 5721 5720 5720 5716 5711 5709 5708 5706 5701 5697 5694 5682 5673 5667 5665 5665 5667 5666 5661 5660 5655
5823 5824 5825 5821 5811 5805 5800 5795 5792 5788 5782 5772 5766 5761 5756 5752 5747 5746 5745 5739 5731 5725 5720 5713 5713 5711 5707 5706 5704 5700 5694 5691 5685 5676 5667 5661 5659 5659 5656 5651 5650 5644 5643
5822 5822 5818 5812 5804 5799 5795 5791 5787 5785 5780 5773 5765 5759 5750 5747 5743 5745 5740 5733 5728 5720 5714 5711 5708 5705 5702 5701 5697 5693 5688 5680 5676 5673 5665 5651 5654 5653 5650 5646 5643 5639 5636
5824 5820 5814 5805 5795 5791 5788 5784 5784 5781 5779 5769 5763 5749 5741 5733 5735 5732 5729 5725 5722 5718 5713 5707 5702 5699 5696 5693 5691 5690 5683 5676 5669 5664 5663 5658 5655 5649 5643 5639 5635 5630 5627
5823 5817 5810 5798 5788 5779 5774 5780 5777 5776 5772 5765 5755 5744 5736 5733 5731 5724 5720 5718 5716 5713 5709 5703 5699 5696 5692 5688 5685 5682 5677 5672 5665 5660 5655 5650 5643 5639 5635 5631 5624 5619 5619
5820 5815 5805 5788 5781 5768 5759 5762 5764 5762 5761 5757 5745 5738 5738 5738 5728 5718 5714 5710 5707 5705 5704 5698 5691 5688 5684 5680 5678 5676 5671 5667 5662 5658 5653 5648 5641 5636 5630 5626 5621 5619 5608
5808 5802 5791 5779 5773 5759 5750 5746 5746 5738 5738 5737 5736 5732 5733 5727 5721 5714 5709 5705 5700 5696 5694 5691 5687 5683 5678 5674 5669 5665 5664 5661 5659 5656 5652 5647 5644 5638 5632 5624 5612 5607 5597
5792 5789 5786 5779 5767 5751 5739 5733 5732 5727 5721 5721 5724 5725 5721 5719 5715 5709 5703 5697 5693 5692 5689 5683 5679 5674 5669 5665 5662 5660 5657 5654 5653 5650 5646 5642 5638 5632 5626 5617 5603 5590 5586
5782 5777 5775 5768 5756 5743 5732 5724 5720 5716 5711 5709 5709 5709 5709 5706 5703 5699 5694 5689 5684 5680 5678 5674 5670 5667 5665 5662 5659 5655 5652 5650 5646 5641 5635 5630 5626 5620 5616 5612 5605 5596 5575
5774 5769 5762 5756 5744 5730 5720 5714 5706 5705 5701 5696 5696 5695 5695 5693 5690 5687 5681 5677 5672 5670 5666 5664 5661 5658 5653 5650 5647 5641 5638 5635 5631 5627 5622 5617 5609 5604 5600 5595 5588 5578 5570
5763 5758 5754 5747 5734 5714 5706 5703 5695 5691 5691 5687 5684 5681 5680 5679 5679 5676 5671 5668 5666 5661 5658 5653 5649 5646 5642 5639 5634 5630 5626 5622 5618 5613 5607 5601 5593 5585 5582 5578 5574 5567 5560
5753 5749 5746 5735 5723 5710 5694 5692 5689 5680 5677 5674 5675 5672 5670 5669 5666 5664 5661 5658 5653 5650 5646 5641 5636 5634 5631 5627 5621 5615 5609 5606 5602 5597 5588 5585 5581 5572 5568 5564 5561 5553 5545
5739 5740 5735 5724 5713 5705 5691 5681 5681 5679 5673 5669 5666 5663 5661 5660 5656 5652 5649 5646 5642 5637 5633 5630 5627 5618 5613 5610 5606 5601 5598 5592 5587 5584 5579 5577 5569 5562 5557 5552 5546 5539 5529
5728 5727 5723 5713 5705 5697 5687 5678 5677 5672 5668 5662 5658 5654 5652 5649 5646 5641 5637 5631 5628 5624 5621 5617 5611 5607 5601 5594 5589 5585 5581 5575 5569 5563 5560 5554 5549 5545 5536 5532 5528 5522 5513
5715 5715 5710 5705 5696 5685 5675 5667 5662 5658 5658 5653 5646 5641 5637 5634 5630 5626 5622 5617 5613 5605 5604 5601 5595 5589 5587 5580 5573 5568 5562 5557 5553 5546 5541 5535 5527 5521 5517 5514 5509 5502 5494
5708 5703 5703 5698 5680 5667 5658 5650 5646 5644 5643 5641 5637 5631 5625 5620 5614 5610 5609 5605 5599 5595 5586 5583 5580 5576 5567 5559 5548 5540 5540 5536 5534 5530 5527 5521 5512 5506 5496 5495 5494 5488 5478
5698 5693 5691 5674 5660 5651 5643 5635 5636 5636 5632 5629 5624 5616 5611 5606 5601 5598 5593 5586 5582 5578 5572 5567 5560 5555 5548 5539 5532 5525 5521 5517 5512 5505 5507 5499 5490 5486 5481 5480 5472 5464 5459
5695 5686 5672 5656 5643 5636 5631 5626 5622 5621 5616 5613 5610 5603 5596 5590 5585 5578 5574 5569 5565 5560 5558 5550 5545 5538 5531 5521 5510 5502 5498 5495 5492 5486 5480 5476 5476 5470 5466 5459 5452 5447 5440
5685 5675 5658 5640 5631 5623 5617 5610 5606 5601 5597 5592 5587 5582 5576 5571 5564 5558 5556 5554 5549 5544 5540 5534 5526 5519 5508 5498 5489 5483 5482 5480 5477 5470 5462 5458 5456 5451 5442 5433 5426 5424 5429
5671 5655 5641 5628 5619 5608 5600 5591 5586 5581 5577 5566 5561 5557 5551 5551 5546 5543 5541 5535 5528 5524 5521 5516 5507 5498 5491 5480 5470 5465 5464 5466 5462 5458 5448 5439 5433 5426 5419 5415 5413 5408 5409
5644 5631 5619 5608 5599 5589 5583 5576 5567 5560 5550 5546 5539 5534 5530 5532 5531 5526 5522 5518 5511 5507 5499 5493 5487 5477 5468 5461 5453 5447 5445 5441 5436 5433 5430 5423 5415 5408 5401 5399 5400 5399 5395
5613 5604 5595 5581 5572 5570 5568 5560 5552 5542 5536 5534 5528 5524 5521 5515 5513 5510 5508 5502 5496 5490 5478 5472 5470 5466 5457 5449 5443 5435 5425 5419 5418 5422 5416 5405 5397 5393 5391 5389 5389 5385 5381
5596 5588 5579 5567 5554 5549 5545 5541 5534 5527 5524 5522 5519 5515 5509 5503 5499 5493 5487 5482 5477 5474 5469 5464 5463 5460 5449 5440 5428 5418 5406 5400 5396 5398 5396 5391 5389 5386 5384 5379 5375 5371 5366
5577 5572 5559 5546 5538 5533 5530 5527 5522 5516 5512 5508 5503 5498 5492 5487 5483 5476 5470 5464 5456 5453 5449 5445 5444 5444 5438 5426 5416 5409 5400 5385 5382 5382 5381 5379 5377 5375 5372 5368 5360 5359 5356
5559 5548 5536 5530 5525 5522 5517 5513 5508 5503 5498 5493 5487 5479 5473 5468 5463 5458 5454 5449 5443 5435 5429 5421 5415 5411 5413 5399 5388 5379 5375 5370 5368 5365 5370 5370 5366 5364 5361 5357 5351 5349 5349
5542 5528 5521 5516 5510 5507 5501 5498 5494 5486 5483 5477 5470 5463 5457 5450 5444 5440 5436 5429 5420 5412 5403 5395 5388 5388 5384 5379 5369 5363 5361 5359 5357 5356 5361 5363 5359 5356 5353 5348 5343 5341 5343